Location: Neuvy Saint Sepulchre
(46.5953°N, 1.8122°E)
Time: 14:51:37
(UTC+02:00)

ISS - Pass Details

Date: 30 March 2019
Orbit: 408 x 410 km, 51.6° (Epoch: 24 April)

Event Time Altitude Azimuth Distance (km) Brightness Sun altitude
Rises 20:48:52 0° 289° (WNW) 2,338 1.9 -15.8°
Reaches altitude 10° 20:51:05 10° 299° (WNW) 1,476 0.4 -16.1°
Maximum altitude 20:54:08 34° 6° (N) 702 -2.5 -16.6°
Enters shadow 20:55:27 24° 51° (NE) 896 -2.4 -16.8°
